User: anonymous   Login
Location: Le Gr�zie
(43.6000°N, 13.5000°E)
Time: 10:30:31
(UTC+00:00)
Language:

STARLINK-1225 - Orbit

View from above orbital plane
View from above orbital plane
View from above satellite
View from above satellite

Ground track
Ground track

The orbit data is extracted from the following two-line orbital elements,

1 45187C 20012K   21210.07743298  .00083154  00000-0  55640-2 0  2105
2 45187  53.0541  49.1508 0001541  97.1673 121.1679 15.06364740    10
Epoch (UTC): 29 July 2021 01:51:30
Eccentricity: 0.0001541
inclination: 53.0541°
perigee height: 546 km
apogee height: 548 km
right ascension of ascending node: 49.1508°
argument of perigee: 97.1673°
revolutions per day: 15.06364740
mean anomaly at epoch: 121.1679°
orbit number at epoch: 1

The dashed part of the orbit path shows where the satellite is in the earth's shadow,  

DLR